Wind_Speed
17 17 18 18 18 19 20 22 22 23 24 24 25 26 26 27 27 28 28 27 27 26 26 25 25 25 24 24 24 24 24 25 25 26 26 26 25 25 24 23 23 22 22 22 22 22 22 23 23 23 24 24 24 24 24 24 24 24 24 24 24 24 24 24 24 24 25 25 26 26 26 26 27 27 28 28 28 29 29 29 29 29 29 29 29 29
17 17 17 18 18 19 21 22 23 24 25 25 25 26 26 26 27 27 28 27 27 26 26 25 25 24 24 23 23 23 24 24 25 25 25 24 24 23 22 21 21 21 21 21 22 22 22 22 23 23 23 24 24 23 23 23 23 24 24 24 24 24 24 24 24 25 25 26 26 27 27 28 28 28 28 29 29 29 29 29 29 29 29 29 29 29
17 17 18 19 19 20 22 23 24 24 25 25 26 26 26 27 27 28 28 27 27 26 25 24 24 23 23 23 23 23 23 23 23 23 23 22 22 21 21 20 21 21 21 21 22 22 22 22 22 22 23 23 23 23 23 23 24 24 24 24 24 24 24 25 25 25 26 26 26 27 28 28 28 29 29 29 29 29 29 29 29 29 29 29 29 29
16 16 16 18 20 21 23 23 24 25 25 25 26 26 26 27 27 28 28 28 27 26 25 24 23 22 22 23 23 22 22 22 22 21 21 20 20 20 20 20 20 21 21 21 21 21 21 21 21 22 22 22 23 23 23 24 24 24 24 25 25 25 25 26 26 26 27 27 27 28 28 29 30 30 30 30 30 30 30 29 29 29 29 29 29 29
15 16 16 18 20 21 22 23 25 25 26 26 26 26 26 27 27 28 28 28 27 26 24 23 22 22 22 22 22 21 21 20 20 20 19 19 19 19 20 20 20 20 20 20 20 20 20 20 21 21 21 22 22 23 23 24 24 24 25 25 26 26 27 27 27 28 28 29 29 30 30 31 32 32 32 32 32 32 32 31 30 30 29 29 29 29
15 17 19 20 21 22 23 24 24 25 25 25 25 25 26 27 27 27 27 27 26 25 24 23 22 21 21 21 21 20 20 19 19 18 18 18 18 18 19 19 19 19 18 18 18 18 19 19 19 20 20 21 21 22 23 23 23 24 24 25 26 27 27 28 28 29 30 30 31 31 31 32 32 32 33 33 33 33 33 33 32 30 30 29 29 29
17 18 21 22 22 23 23 23 23 23 23 24 25 26 26 26 26 26 25 25 25 24 24 24 23 22 21 20 20 19 19 19 18 18 18 17 17 17 17 17 17 17 17 17 17 17 17 17 18 18 19 19 20 20 21 21 22 23 24 24 25 26 27 27 28 28 29 29 30 30 30 31 31 31 32 32 32 32 33 33 32 31 30 29 29 28
18 20 21 22 23 23 22 21 21 21 22 24 25 26 26 26 25 24 23 23 23 24 24 24 24 22 21 20 20 20 19 19 19 18 17 17 16 16 16 16 16 16 15 15 15 15 15 16 16 16 17 18 18 19 19 20 21 22 22 23 24 25 25 26 27 27 28 28 29 29 29 30 30 30 31 31 31 31 32 32 31 31 30 29 29 29
19 20 21 21 21 21 21 20 20 21 22 23 24 25 25 24 23 22 22 22 22 23 23 24 24 23 22 20 20 20 20 19 19 18 17 17 16 16 16 16 16 15 15 15 14 14 14 14 15 15 16 16 17 18 19 19 20 21 22 23 23 24 25 25 26 27 27 28 29 29 29 30 30 30 30 31 31 31 31 31 30 29 29 29 29 28
19 20 20 21 21 21 21 21 22 23 23 23 23 22 22 21 21 20 20 20 21 22 23 24 24 24 22 21 20 20 20 20 19 18 18 18 18 17 17 17 17 16 16 16 15 15 14 14 14 15 15 16 17 17 18 19 20 21 22 23 23 24 25 26 27 27 28 29 29 29 30 30 30 30 30 31 30 30 30 30 29 29 28 29 29 29
19 19 19 19 19 20 21 22 23 23 22 21 20 19 18 17 17 18 19 21 22 23 24 23 23 22 22 22 21 20 20 20 19 19 19 19 19 19 19 19 19 19 19 18 17 16 16 15 15 16 16 16 17 18 19 20 21 22 22 23 24 25 26 26 27 28 28 29 29 29 29 30 30 30 30 30 30 29 30 29 29 29 29 29 29 29
18 18 18 18 18 19 21 22 21 20 18 16 15 15 14 14 14 16 19 21 23 24 23 22 21 21 21 21 20 19 19 18 18 18 19 19 19 19 20 20 21 21 22 21 20 18 17 17 17 17 17 17 18 18 19 20 21 22 23 24 25 25 26 27 27 28 28 28 28 28 29 29 29 29 29 29 29 29 29 29 29 30 30 30 30 30
17 17 17 18 19 19 19 18 16 13 12 12 13 13 14 15 16 18 20 21 22 21 20 20 20 20 20 19 18 18 17 17 17 17 17 18 19 19 20 21 22 23 23 22 21 19 18 18 18 18 17 18 19 19 20 21 22 23 23 24 25 25 26 26 27 27 27 27 27 28 28 28 28 28 29 29 29 29 29 29 29 30 30 30 30 30
15 15 16 17 17 17 15 13 12 11 11 12 13 14 16 17 18 19 19 19 18 18 17 18 19 19 18 17 16 15 15 15 15 15 16 17 18 19 21 22 23 24 24 23 22 20 18 18 19 19 18 19 19 20 21 22 22 23 24 24 25 25 25 26 26 26 26 26 26 27 27 27 27 27 27 28 28 28 28 29 29 29 29 30 30 30
13 14 14 14 14 13 12 11 11 12 13 14 15 16 17 17 17 17 16 16 15 16 16 17 18 18 17 16 14 13 13 13 14 15 16 17 19 20 22 24 24 24 23 23 23 21 20 19 20 20 20 20 21 21 22 22 23 23 24 24 24 24 24 24 24 24 24 24 25 25 25 25 26 26 27 27 28 28 28 29 29 29 29 30 30 30
13 13 13 12 12 12 12 12 13 14 15 15 15 15 15 15 14 14 13 14 15 16 16 16 17 17 16 15 13 12 12 12 13 15 17 19 21 23 24 24 25 25 24 23 23 22 22 21 21 22 22 22 22 22 23 23 23 23 23 22 22 22 22 22 22 22 22 23 23 23 24 24 25 26 26 27 27 28 28 29 29 29 29 30 30 30
13 12 12 13 13 13 13 13 14 14 13 13 13 13 13 13 13 14 15 15 15 15 15 15 16 17 17 16 14 13 12 13 14 16 19 22 23 24 24 24 25 26 25 24 23 23 23 23 23 24 24 24 23 23 23 22 22 22 21 21 20 20 20 21 21 21 21 22 22 23 23 24 25 26 27 27 28 28 29 29 29 29 29 30 30 30
12 12 12 12 13 13 13 13 13 12 12 12 12 13 13 13 14 14 15 15 15 15 15 16 16 16 17 16 15 14 14 15 17 18 21 23 25 26 24 24 25 25 25 24 24 24 25 25 26 26 26 25 24 23 23 22 21 20 20 20 20 20 20 20 21 21 21 22 22 22 23 24 25 26 26 27 28 28 28 29 29 29 29 30 30 30
11 12 12 13 13 13 13 12 12 12 12 12 13 14 14 14 14 14 14 15 15 16 16 16 17 17 17 17 17 17 17 18 19 20 22 25 27 26 24 23 24 24 25 25 24 24 25 26 27 27 26 26 25 24 23 22 21 20 20 20 20 20 20 21 21 21 21 21 22 22 23 23 24 25 26 27 27 28 28 29 29 29 29 29 30 30
13 13 12 13 13 12 12 12 12 12 12 13 14 14 14 14 14 15 15 16 16 17 17 17 18 18 18 19 19 20 21 22 23 23 24 26 27 25 23 22 23 23 25 24 24 25 26 27 27 27 27 27 26 24 23 22 21 20 20 20 20 20 20 20 20 20 20 21 21 21 22 23 23 24 25 26 26 27 28 28 29 29 29 29 30 30
14 13 13 12 12 12 13 13 14 14 14 14 14 14 14 15 15 16 17 17 17 17 17 18 18 19 19 20 22 24 24 24 24 23 24 26 26 25 23 22 22 23 24 24 24 25 26 26 27 28 28 27 26 24 23 21 20 19 19 19 20 20 20 20 20 20 20 20 20 21 21 22 22 22 23 24 25 26 27 28 28 29 29 29 30 30
15 14 14 14 14 15 15 16 16 16 15 14 14 14 14 15 16 17 18 17 17 17 18 18 20 21 23 25 26 26 26 24 22 22 23 24 26 25 23 21 21 21 23 24 25 25 25 26 26 27 28 27 26 24 22 21 20 19 19 19 19 20 20 20 20 20 20 20 20 21 21 21 22 22 23 24 25 26 27 28 29 29 29 30 30 31
17 17 17 16 16 17 18 18 18 17 15 14 13 13 14 15 16 17 17 17 18 18 20 22 24 25 26 27 27 26 24 22 21 20 20 21 24 24 22 21 20 21 22 24 24 25 26 26 27 28 28 27 25 24 22 21 20 20 19 20 20 19 19 20 20 20 20 20 21 21 21 22 22 23 24 25 26 26 27 28 29 29 30 30 31 31
17 17 17 17 18 18 18 18 17 16 14 13 13 13 14 14 15 16 18 19 21 23 24 25 26 26 27 27 25 24 22 20 18 18 18 19 21 22 22 20 20 21 23 23 24 26 27 28 29 29 29 27 26 24 23 22 21 21 21 20 20 20 20 20 20 20 20 21 21 21 22 22 23 23 24 24 25 26 27 27 28 29 29 30 30 30
17 17 18 18 18 18 17 16 15 15 14 14 14 15 16 17 19 21 22 23 24 24 24 24 25 25 26 25 23 22 21 19 18 17 17 19 20 21 21 20 20 21 23 24 25 26 27 28 29 29 29 28 26 25 23 23 23 23 23 22 22 21 21 21 21 21 21 21 21 21 21 22 22 22 22 23 23 24 25 25 26 27 27 28 28 29
18 18 19 19 19 19 18 18 18 18 17 17 18 18 19 20 22 23 23 24 23 22 21 21 23 24 24 24 23 22 20 18 17 17 17 18 20 21 21 20 21 22 23 25 26 26 27 29 30 30 29 28 26 25 25 25 25 25 25 25 24 23 23 22 22 21 21 21 21 21 21 21 21 21 21 21 22 22 23 23 24 25 26 27 28 28
18 18 19 20 20 20 20 20 20 19 18 18 18 18 20 21 22 23 23 22 21 20 19 21 22 24 24 24 23 21 20 18 18 17 17 17 19 20 21 21 21 22 24 26 27 27 28 30 30 29 28 27 27 27 26 27 27 27 27 26 26 25 24 24 23 22 22 21 21 21 21 21 21 21 21 21 21 22 22 22 23 24 25 26 27 28
17 18 19 19 19 19 19 19 18 17 17 16 17 17 19 20 21 22 22 21 20 20 20 21 22 22 23 23 23 22 21 21 19 17 15 16 18 21 22 22 21 22 24 26 28 29 29 29 29 28 27 27 27 27 28 28 28 28 28 27 27 26 26 25 25 24 24 23 23 22 22 21 21 21 21 21 21 21 21 22 22 23 24 26 27 28
16 17 17 17 17 17 16 16 16 15 15 16 16 17 18 19 20 20 20 20 20 20 21 22 22 22 22 23 24 24 23 20 17 14 14 15 18 21 22 22 22 23 24 26 28 30 29 28 27 26 26 26 26 27 28 29 29 29 28 28 28 28 27 27 26 26 26 25 25 24 23 22 21 20 20 20 20 20 21 20 21 22 23 25 26 27
14 14 13 13 13 13 13 13 13 14 14 15 15 16 17 18 18 19 19 19 19 20 20 21 21 21 21 22 23 22 21 16 13 12 14 16 19 22 23 23 23 23 24 25 27 28 28 28 26 24 24 25 27 28 29 29 29 29 30 30 29 29 28 28 28 28 27 27 26 25 24 22 21 20 20 20 19 19 19 19 19 21 22 24 25 27
13 12 11 11 11 11 11 12 12 13 14 14 15 15 16 17 17 18 18 18 19 19 20 20 20 20 20 20 19 18 18 15 14 14 16 18 21 23 24 24 24 24 23 22 23 24 25 27 27 25 25 26 28 28 29 29 29 29 30 30 30 30 30 29 29 29 29 28 27 26 24 23 22 21 20 20 19 19 18 18 18 19 20 23 24 26
12 12 12 12 12 12 12 13 13 13 14 14 15 15 16 16 17 17 18 18 19 19 20 20 20 20 19 19 19 19 20 19 18 18 19 20 22 23 24 24 24 24 23 21 21 22 23 26 29 30 29 29 29 29 29 29 29 29 30 30 31 31 30 31 30 30 29 29 27 26 25 24 23 22 21 20 19 18 17 16 16 17 19 21 23 25
12 12 12 12 12 13 13 13 14 14 14 15 15 16 16 17 17 17 18 18 18 19 19 19 19 19 19 20 21 22 22 21 20 19 19 21 22 24 24 25 25 25 23 22 21 22 24 27 30 32 32 31 31 30 30 30 29 29 30 30 31 31 31 31 31 31 30 29 28 27 26 25 24 23 22 21 19 18 18 17 16 17 18 20 22 23
11 12 12 12 13 13 14 14 14 15 15 15 16 16 17 17 17 17 18 18 18 18 18 18 18 18 19 20 21 23 23 22 20 19 20 21 22 24 25 26 26 26 25 23 22 22 24 27 29 30 31 32 31 31 30 30 30 30 30 30 30 31 32 32 31 31 30 30 29 28 28 27 26 25 23 22 21 20 19 18 18 17 18 19 21 22
11 12 12 12 13 13 14 14 15 15 16 16 16 17 17 17 17 17 17 18 18 18 18 17 17 17 18 19 21 23 23 22 20 20 20 21 23 24 25 26 25 25 24 24 24 24 24 25 26 28 29 31 32 32 31 29 29 29 30 30 30 31 31 31 31 31 30 30 30 29 29 28 28 27 26 24 23 22 21 20 19 18 18 19 20 21
11 12 12 12 13 13 14 15 16 16 16 16 17 17 17 17 17 17 17 17 17 17 17 17 17 17 18 19 20 22 22 22 21 20 21 21 21 23 24 25 25 24 24 25 25 25 25 26 27 28 29 30 32 32 31 30 29 29 30 31 31 31 32 31 30 30 30 30 30 30 30 29 29 29 28 26 25 24 23 22 21 20 20 19 20 20
11 11 12 13 13 14 15 15 16 16 17 16 16 16 16 17 17 17 17 17 17 17 17 17 17 18 19 19 20 21 21 22 21 21 20 20 20 21 22 24 23 23 24 25 25 26 26 27 28 29 29 29 29 30 31 31 31 32 32 32 32 32 32 31 30 30 30 30 30 30 30 30 30 29 29 28 27 26 25 24 23 22 21 21 20 20
11 11 12 13 14 14 15 15 16 16 16 16 16 16 16 16 16 16 17 17 17 17 17 17 18 18 19 20 20 21 21 21 21 20 19 18 18 19 20 22 22 22 22 23 24 25 26 27 28 29 29 29 29 30 32 32 33 34 34 34 33 33 32 31 30 30 29 30 30 30 30 30 30 30 29 29 28 27 27 26 25 24 24 23 23 22
10 11 12 13 14 14 15 15 15 15 15 15 15 15 15 16 16 16 16 16 16 17 17 17 18 19 19 19 20 20 21 21 21 20 19 17 17 17 19 20 22 22 21 21 22 24 26 27 29 29 30 31 32 33 34 34 34 35 35 35 35 34 32 31 30 30 30 30 30 31 31 30 30 29 29 29 28 28 28 28 27 27 26 26 25 25
10 11 12 13 13 14 14 14 14 14 14 14 14 15 15 15 15 15 16 16 16 16 16 17 18 18 19 19 20 20 21 21 21 20 19 18 17 17 18 20 21 21 21 21 22 23 25 27 29 30 31 32 33 34 34 34 34 35 35 35 35 35 34 32 32 31 31 31 31 31 30 30 30 29 29 29 29 28 29 29 28 28 27 27 27 27
10 11 12 12 12 13 13 13 13 13 13 13 13 14 14 14 14 15 15 15 15 15 15 16 17 17 18 19 20 21 21 22 21 21 20 19 19 19 19 20 20 21 21 22 23 24 26 27 29 30 31 32 33 34 35 35 35 34 34 34 35 35 35 35 33 32 31 31 30 30 30 30 30 29 29 29 29 29 29 29 29 29 29 27 27 27
10 11 11 12 12 12 12 12 12 12 13 13 13 13 13 14 14 14 14 14 14 15 15 16 17 18 19 20 21 21 21 21 21 21 21 20 20 20 20 20 21 21 22 23 24 25 26 27 29 30 31 32 32 33 34 35 35 34 33 34 34 36 36 36 34 32 30 30 30 30 30 30 31 31 30 30 30 31 31 31 31 31 30 30 29 29
10 11 11 11 11 12 12 12 12 12 12 12 12 12 13 13 13 14 14 14 14 14 15 16 17 19 20 21 22 22 21 21 20 20 20 20 20 20 21 21 21 22 22 23 25 27 27 28 29 30 31 32 32 33 34 35 35 35 33 33 34 34 34 35 35 33 32 31 31 31 31 31 31 31 32 32 32 32 33 32 32 31 31 31 31 31
10 10 11 11 11 12 12 12 12 12 12 12 13 13 13 13 13 13 14 14 14 15 15 17 18 19 20 21 22 22 21 20 20 20 20 20 20 20 20 21 22 22 23 24 25 27 28 29 29 30 30 31 32 33 34 34 35 36 35 34 33 33 34 35 35 35 34 34 33 32 32 32 32 32 33 33 33 34 34 34 34 33 33 33 32 32
10 10 10 11 11 11 11 12 12 12 12 13 13 13 13 13 13 14 14 14 15 15 16 17 18 20 21 21 22 22 22 22 21 21 20 20 20 20 20 21 22 22 23 24 25 26 28 29 30 30 30 31 32 33 34 35 35 36 35 34 34 34 34 35 35 34 34 33 33 33 32 32 32 33 33 34 35 35 35 35 34 34 34 33 33 33
10 10 10 10 11 11 12 12 12 13 13 13 13 13 13 13 14 14 14 15 15 16 16 17 18 20 21 22 22 23 23 24 23 23 22 21 21 21 21 21 21 22 23 24 25 26 27 28 29 30 31 32 33 34 34 34 34 34 35 34 34 34 34 34 34 33 33 33 33 33 33 33 33 33 34 35 36 36 35 35 34 34 34 33 33 33
10 9 10 10 10 11 12 12 13 14 14 14 14 14 14 14 15 15 15 15 16 16 17 18 19 20 21 22 22 23 24 25 25 25 24 24 23 22 22 22 22 22 23 23 24 25 26 27 28 29 30 32 33 34 33 33 32 33 33 34 33 33 34 34 34 34 33 33 33 34 34 34 33 33 35 36 36 36 35 35 34 33 33 33 33 33
9 9 9 10 10 11 12 13 14 15 15 15 15 15 16 16 16 16 16 17 17 17 18 19 20 21 22 22 23 23 24 24 26 26 26 26 25 25 24 24 23 23 23 24 24 25 26 27 27 27 27 29 31 33 33 32 32 32 32 33 33 33 34 35 35 35 34 34 34 34 34 34 34 35 36 37 37 37 36 35 34 33 33 32 32 32
9 9 9 10 10 12 13 14 15 15 16 16 16 16 17 17 17 17 18 18 18 19 19 20 21 22 23 23 24 24 24 24 26 27 27 27 27 27 27 26 26 25 25 25 25 26 26 27 26 26 25 25 27 30 31 32 32 32 32 32 32 33 34 35 35 34 34 34 34 34 34 34 35 35 36 36 37 37 37 36 34 33 32 31 31 31
9 10 10 10 12 13 14 15 15 16 16 16 17 17 17 17 18 18 18 18 19 19 20 21 21 22 23 24 24 24 24 25 26 27 28 28 28 28 28 28 27 27 27 27 26 26 27 27 26 25 24 23 23 26 28 31 32 31 31 31 31 31 32 33 34 34 34 33 34 34 35 35 35 35 34 35 36 37 37 36 34 32 31 30 29 29
10 10 11 11 13 14 15 15 16 16 16 17 17 18 18 18 18 18 19 19 19 20 21 22 22 23 23 24 25 25 25 26 27 28 29 29 28 28 28 28 28 27 27 28 27 27 26 26 26 25 24 23 21 22 24 27 29 30 30 30 31 30 31 32 33 34 34 34 34 35 35 35 35 34 34 33 34 35 36 35 34 32 31 29 29 29
Wind_Direction
267 271 275 279 283 288 290 290 291 291 291 292 293 294 295 297 298 299 300 301 302 303 303 302 301 300 299 299 298 297 296 295 294 293 292 291 291 291 290 290 290 290 290 291 291 290 290 289 288 288 286 286 284 283 282 281 280 280 280 280 280 280 280 279 278 277 277 276 275 274 273 272 271 270 270 271 272 272 272 272 272 272 272 272 273 273
273 277 281 284 287 290 292 292 292 292 293 293 294 295 297 298 300 301 302 303 304 305 304 303 302 301 299 299 298 297 296 295 293 292 291 291 290 290 290 290 291 291 291 291 290 290 289 288 287 286 286 285 284 283 282 280 279 278 278 278 279 279 279 279 278 277 277 277 276 275 274 273 272 271 271 272 272 273 273 273 274 274 274 274 274 274
284 288 290 292 293 294 294 293 293 293 294 295 296 298 300 302 303 304 305 306 306 306 305 304 303 301 300 299 298 297 296 294 293 291 291 291 291 291 291 292 292 292 292 291 291 290 289 288 286 284 283 283 282 281 280 279 277 276 275 276 276 277 277 278 277 277 277 277 277 276 275 275 274 273 273 273 273 274 274 274 274 274 274 274 274 274
288 292 293 295 297 297 296 295 295 295 296 297 300 302 304 305 306 306 307 307 307 306 305 304 303 302 301 300 299 297 295 293 292 292 292 292 293 293 294 294 293 293 292 292 291 290 288 287 285 283 282 281 280 279 278 276 275 274 273 273 273 274 275 275 276 276 277 276 276 275 275 274 273 272 272 272 273 273 274 274 275 275 275 274 274 274
289 291 291 293 295 296 296 295 295 297 298 300 303 305 307 307 308 308 307 307 307 306 305 304 303 303 301 300 299 297 295 294 293 294 294 295 295 295 294 294 293 292 291 290 289 288 286 285 283 281 279 278 277 276 275 274 273 272 272 270 270 271 272 273 273 273 273 273 273 272 272 272 271 271 271 271 272 272 273 273 274 275 275 274 274 274
287 289 291 292 293 294 294 294 295 297 300 302 305 307 308 308 308 308 307 307 306 306 306 305 305 304 304 302 301 299 298 297 297 296 297 296 295 294 293 292 290 289 288 287 285 284 283 281 280 278 277 276 276 275 275 274 273 272 271 270 270 270 270 271 271 271 271 271 271 271 271 272 272 272 272 272 272 272 273 273 274 275 274 274 274 274
287 288 292 293 293 293 294 294 296 298 301 304 306 307 308 308 307 306 305 305 306 306 307 308 308 308 308 307 306 304 303 302 301 301 300 298 296 294 291 289 288 287 286 286 285 284 282 281 280 279 278 278 277 277 277 277 276 275 274 274 273 273 272 273 273 273 273 274 274 274 275 275 275 275 275 275 275 275 274 274 274 274 274 274 273 273
288 289 291 292 292 293 294 294 296 298 302 305 306 307 307 306 305 304 304 305 306 307 309 311 312 313 313 313 311 310 309 308 307 306 305 303 301 298 295 293 291 291 290 291 290 290 288 287 286 285 284 283 283 282 282 281 280 279 279 279 278 278 279 278 279 279 279 279 279 279 279 279 279 279 279 279 278 277 277 276 276 275 274 273 273 272
286 287 288 289 290 291 292 292 294 297 301 304 305 305 304 305 305 305 306 307 307 309 311 313 315 316 316 316 315 314 313 312 313 313 313 312 310 308 305 303 301 300 300 300 301 300 298 296 293 291 290 288 287 286 285 284 283 283 282 282 282 282 282 282 282 282 282 282 282 282 282 282 282 281 281 280 280 279 279 279 278 277 275 274 273 272
283 284 284 286 287 289 291 293 296 300 303 304 304 303 303 305 307 309 310 308 309 310 311 313 315 316 317 318 317 318 318 318 318 319 320 320 319 318 316 315 313 312 311 311 311 310 307 303 299 295 293 291 290 288 287 286 285 284 284 283 283 283 283 283 283 283 283 283 282 282 282 282 281 281 280 280 280 280 280 279 278 277 275 274 273 273
281 282 284 285 288 290 293 298 302 306 308 308 307 305 305 307 309 309 307 306 307 309 311 313 315 317 318 320 320 321 323 323 324 324 324 324 324 324 323 322 321 320 319 319 318 317 314 309 304 300 297 295 293 291 289 288 286 285 284 284 283 283 283 282 282 282 282 282 282 281 281 280 279 279 279 279 279 278 278 277 276 275 274 273 273 272
280 282 283 285 288 292 297 302 308 312 313 310 307 304 302 302 302 301 300 302 305 309 312 313 314 316 318 320 322 324 325 323 322 322 322 322 322 323 321 320 319 320 320 320 320 319 316 311 307 303 300 298 295 293 290 289 287 286 285 285 284 284 283 283 282 282 281 281 280 279 279 278 277 277 277 277 277 276 275 274 273 273 272 272 272 271
281 282 284 287 291 296 302 307 310 309 304 299 296 295 294 294 295 297 300 302 306 309 312 313 313 314 317 320 323 323 321 318 315 314 313 314 316 317 316 314 315 317 319 320 320 319 317 312 307 304 302 298 296 293 292 290 289 288 288 287 287 286 285 285 284 282 281 280 279 278 277 276 275 275 275 276 276 276 275 274 273 273 272 272 272 271
281 284 287 291 296 301 306 306 301 294 287 287 288 289 292 294 297 300 302 304 306 308 309 308 309 312 316 321 323 320 315 310 307 306 306 308 311 313 312 311 312 316 319 319 319 319 317 312 309 306 303 300 297 296 295 294 293 292 292 291 291 289 288 286 285 283 282 280 279 277 276 276 275 274 275 276 277 276 276 275 274 274 273 273 272 271
280 284 288 290 295 298 298 294 288 285 283 286 288 291 294 297 298 300 301 301 301 303 306 307 309 311 313 318 320 317 309 304 301 302 303 304 307 310 312 311 313 316 319 318 318 318 317 314 311 309 306 304 302 301 300 299 298 298 297 295 294 292 290 288 286 284 282 280 279 278 278 277 277 277 277 277 277 276 275 275 274 274 273 272 272 271
280 283 285 286 288 288 286 285 284 285 287 290 292 294 296 296 296 296 295 295 298 302 306 309 310 310 310 315 317 315 308 302 300 301 303 302 306 312 315 312 312 314 317 318 318 318 318 316 313 311 310 309 308 307 306 305 304 302 300 299 297 295 292 290 288 286 284 283 282 281 281 280 280 279 279 278 277 276 275 274 273 273 272 271 271 270
280 281 281 282 283 283 284 286 288 289 290 291 291 291 291 291 291 291 291 294 299 302 303 305 305 306 307 310 314 316 313 306 302 301 302 302 307 314 318 314 312 314 318 319 319 319 319 318 316 315 314 314 314 313 312 311 309 307 305 303 301 299 296 294 292 290 288 286 285 284 282 281 280 279 279 278 277 276 275 274 273 272 271 271 270 270
279 278 279 279 281 284 286 288 287 287 286 286 287 287 287 287 289 291 294 297 299 299 299 300 300 300 301 303 306 310 311 306 303 302 302 304 309 315 319 317 315 316 318 320 320 320 319 319 318 318 317 318 318 318 318 316 315 313 311 309 307 304 302 299 297 294 292 289 287 284 282 281 279 279 278 278 277 277 276 275 274 273 272 271 270 269
277 276 278 281 283 284 285 284 282 281 282 283 286 288 289 289 291 294 296 298 297 294 294 293 293 294 295 296 300 304 305 303 303 302 302 304 310 317 321 319 316 316 318 319 319 319 319 318 317 318 319 320 322 322 322 321 320 319 317 314 312 309 306 303 300 297 294 291 289 286 283 281 279 279 278 277 277 277 276 275 274 273 272 271 270 269
278 278 279 282 283 282 280 278 278 279 281 284 287 289 289 291 293 295 295 296 294 292 291 290 290 291 294 295 298 301 303 303 302 302 302 305 311 318 321 318 315 314 316 316 317 318 317 316 316 317 319 321 322 323 323 322 322 320 319 316 314 311 308 305 302 300 297 294 291 288 285 283 280 279 278 278 277 277 276 275 275 274 273 272 272 271
279 279 279 278 278 277 276 276 278 279 282 286 288 290 291 294 295 296 298 298 296 293 292 290 289 290 293 294 296 300 305 304 303 302 304 307 312 318 320 318 314 313 313 313 316 317 316 314 313 314 316 318 320 321 322 322 322 321 320 318 316 313 310 308 305 302 299 296 293 290 287 284 282 281 280 279 278 277 277 276 275 274 274 273 272 272
274 273 272 271 272 273 275 276 280 283 287 291 294 295 296 298 298 297 298 297 294 291 289 286 287 290 293 294 298 303 306 305 303 303 304 306 311 316 321 317 313 310 310 312 314 314 312 309 308 309 312 316 319 321 322 323 323 323 322 320 318 315 312 310 307 304 301 298 295 292 290 287 285 283 282 280 278 277 276 275 275 274 273 271 271 270
270 271 273 273 274 275 278 281 286 291 296 299 300 301 303 302 299 297 295 292 289 287 286 287 290 293 295 297 301 305 307 307 306 304 303 301 306 312 317 314 311 308 307 310 311 311 309 307 307 308 312 317 320 322 323 324 324 324 324 322 320 317 314 312 309 306 304 302 299 296 293 290 287 284 281 278 276 274 274 273 273 272 271 270 269 269
268 270 272 275 277 281 285 289 292 295 298 299 300 300 298 293 289 285 283 282 284 285 287 290 293 296 298 301 303 305 307 306 304 302 300 297 300 306 311 310 308 306 305 307 309 309 309 309 310 312 315 318 321 323 324 324 325 325 325 324 322 319 317 314 312 309 307 304 301 298 294 290 287 283 280 278 275 273 272 272 271 271 270 270 270 270
271 273 274 277 279 281 284 285 285 283 281 278 277 276 276 276 275 276 277 281 284 287 290 293 294 295 298 302 303 304 306 305 302 300 298 297 299 303 306 306 306 305 304 307 309 310 309 309 311 314 316 318 321 323 324 325 326 326 326 324 323 321 319 317 314 311 308 305 302 298 295 291 288 285 282 280 277 275 274 273 272 271 271 271 272 272
278 278 277 277 277 277 277 276 275 274 272 268 266 267 269 272 275 278 281 284 286 288 289 290 291 294 299 301 301 302 305 305 303 300 299 297 297 299 304 306 306 306 305 307 309 309 308 308 310 314 317 320 323 325 326 326 326 325 324 323 322 322 320 318 316 314 311 308 305 302 299 296 293 290 287 284 281 279 277 276 275 274 273 274 274 274
282 281 280 279 278 279 279 279 280 281 280 277 274 273 273 274 277 280 282 284 286 287 287 287 289 293 298 299 300 301 303 302 301 301 300 297 295 296 302 307 307 306 305 306 307 307 306 307 310 314 318 322 324 325 324 324 323 322 321 321 322 322 322 321 320 318 316 314 312 309 307 304 301 297 293 290 287 284 282 281 279 277 276 276 275 274
285 284 283 283 284 284 285 286 286 286 284 281 278 275 274 276 278 280 283 285 286 286 285 286 288 291 295 296 298 301 302 303 305 306 303 298 294 295 302 307 308 306 305 305 307 308 308 309 311 315 318 320 321 320 319 319 319 319 320 321 323 323 323 323 323 323 321 319 318 316 314 311 307 303 299 295 292 289 286 284 282 280 278 277 275 274
286 285 284 284 283 283 283 283 282 281 279 277 275 274 275 277 279 281 284 287 287 285 285 287 288 290 293 296 300 302 304 309 312 310 303 296 292 296 304 307 307 306 306 306 308 310 310 311 312 314 316 317 316 314 315 317 319 321 323 324 325 325 325 326 325 325 323 322 320 319 317 315 311 307 303 300 296 292 289 286 284 282 280 278 276 274
294 291 288 285 283 281 280 280 279 279 278 278 279 279 280 281 283 285 287 287 286 284 285 287 288 290 292 296 300 302 305 310 310 303 299 296 296 300 305 306 306 306 306 307 308 309 309 311 312 313 312 313 313 313 315 318 320 323 324 326 326 326 326 326 326 325 323 322 322 320 319 317 314 311 307 304 300 296 293 289 286 284 281 279 277 276
307 306 303 299 295 292 289 288 286 286 285 285 286 286 286 287 287 287 287 287 286 285 285 287 288 289 290 292 293 294 296 301 300 297 299 299 299 301 304 305 305 305 306 304 304 304 306 309 312 313 312 311 312 314 316 318 320 322 323 323 324 324 325 326 325 324 323 323 322 321 320 318 316 313 310 307 304 300 297 293 289 285 282 280 278 277
311 310 309 306 303 301 298 296 295 293 293 293 292 291 290 290 289 288 287 287 286 286 286 287 289 290 290 289 286 286 290 296 300 301 302 301 301 302 304 303 303 303 304 301 298 296 297 301 307 311 313 312 312 314 317 318 319 320 321 320 320 322 323 324 323 322 322 322 322 321 320 319 317 315 313 310 307 304 301 297 294 289 285 282 280 279
310 309 307 306 305 303 302 300 299 298 297 296 295 293 292 290 289 288 288 287 287 287 287 288 289 290 290 290 290 291 295 300 305 307 306 303 301 301 302 301 300 300 301 300 296 292 291 295 301 308 312 313 313 314 316 318 319 319 319 318 318 319 321 322 321 320 320 320 320 320 321 320 320 318 316 314 311 309 306 302 298 294 289 286 284 283
309 308 307 306 305 304 303 302 300 299 298 297 295 294 292 291 290 290 289 289 289 289 289 289 288 289 290 291 293 296 300 305 309 309 305 301 298 298 299 299 299 299 300 299 297 294 292 294 298 303 307 310 312 313 314 316 318 319 318 317 316 316 317 318 317 317 317 318 318 319 320 321 321 320 319 317 315 313 310 307 303 299 295 291 288 286
309 308 307 306 305 304 303 302 301 300 299 298 297 296 294 294 293 293 292 291 291 291 291 290 289 289 289 290 292 296 301 307 308 307 303 299 298 298 299 299 298 298 298 297 297 296 295 296 297 300 302 305 308 311 313 315 316 317 317 316 314 314 314 315 314 314 315 316 317 318 319 320 320 319 319 318 317 315 313 310 307 303 299 295 290 286
308 308 307 306 305 305 304 302 301 300 300 299 298 297 296 296 296 295 294 293 293 292 292 291 291 290 290 291 293 297 302 307 309 308 306 304 302 300 298 298 298 297 296 296 296 296 295 296 298 299 300 301 304 308 313 316 316 315 314 315 315 314 314 314 314 314 314 314 315 316 317 318 317 317 317 317 317 316 314 312 309 306 303 299 294 288
306 307 308 307 306 306 305 303 302 301 300 299 299 298 297 297 297 296 295 294 294 293 293 292 291 291 291 292 294 298 303 308 311 313 313 311 306 301 298 298 298 298 296 296 296 297 296 296 297 299 298 297 299 303 309 313 314 314 313 314 315 315 315 316 316 314 313 312 312 313 314 314 314 314 314 315 316 316 314 313 311 309 306 303 299 294
305 306 309 309 308 307 306 306 304 302 300 300 299 299 298 298 297 296 295 295 294 294 293 292 292 292 292 293 296 299 304 308 312 316 316 314 308 304 301 300 301 302 300 298 298 297 296 294 293 295 296 297 298 301 305 308 310 311 314 316 316 316 316 317 316 314 312 310 310 310 311 312 312 312 312 313 314 313 312 311 312 312 310 307 304 300
308 310 311 311 311 310 310 309 306 304 303 302 302 301 300 299 297 296 296 295 294 294 293 293 293 294 294 296 299 303 307 311 315 318 318 317 313 310 307 305 305 305 305 303 301 298 295 292 290 291 293 296 299 302 306 307 307 309 313 316 317 317 317 317 315 312 310 309 308 309 310 312 312 312 311 311 310 309 307 308 308 309 309 307 305 302
314 314 314 314 313 312 311 310 309 308 307 307 305 304 303 301 300 298 297 296 295 295 294 295 295 296 298 300 304 308 312 315 318 320 321 322 321 317 313 310 309 309 310 307 303 299 295 293 292 292 293 294 296 299 303 305 306 308 310 310 311 313 317 316 314 312 311 310 309 309 310 311 311 310 309 308 307 305 304 304 305 305 305 302 300 298
319 319 318 316 315 313 313 313 312 311 311 310 310 309 308 306 304 302 301 299 299 298 298 298 299 301 303 306 309 312 315 318 321 323 325 327 327 324 319 314 312 312 311 308 304 301 297 295 294 294 295 295 296 298 300 302 305 306 306 304 305 309 314 314 314 313 312 311 310 309 308 308 307 307 307 306 305 305 304 303 302 302 302 300 297 295
323 321 319 317 316 315 315 314 313 313 313 313 314 314 313 311 309 307 306 305 304 304 304 305 306 307 307 309 312 315 318 321 323 325 327 329 329 327 322 318 316 314 312 308 305 302 300 298 296 295 295 296 296 296 297 301 304 305 304 303 304 308 311 313 314 313 311 309 308 307 306 306 306 306 307 306 306 306 306 304 302 301 300 298 297 296
322 320 318 316 315 315 314 314 315 315 316 316 315 315 316 315 313 312 310 309 308 307 307 308 309 310 313 314 316 318 320 323 325 326 327 328 328 326 323 321 319 317 313 308 305 303 303 301 298 296 297 299 297 295 295 298 302 304 304 304 305 304 303 307 312 314 310 308 307 307 307 307 308 308 308 307 306 306 305 304 302 300 299 298 297 295
321 319 317 315 314 314 314 315 317 317 317 316 317 318 318 318 316 314 313 312 311 311 311 311 312 313 316 318 320 321 323 324 325 326 327 328 327 326 324 322 320 318 314 308 304 303 303 302 300 300 301 300 297 295 294 296 299 302 305 307 306 302 299 303 309 311 310 309 309 309 309 309 309 309 307 306 305 305 304 303 302 301 300 299 298 296
320 318 316 314 313 313 315 317 317 316 316 316 318 319 321 321 319 318 317 316 316 316 315 315 317 318 317 319 322 324 324 325 326 327 330 330 329 327 325 322 319 316 312 308 305 303 301 300 301 303 304 301 297 294 294 296 299 302 305 308 307 305 304 306 308 308 307 307 307 308 309 310 309 307 305 304 303 303 302 301 300 300 300 299 298 297
318 316 315 315 315 317 319 318 318 317 318 319 320 322 323 324 324 323 322 322 322 321 320 320 320 320 319 321 323 326 327 327 328 330 331 331 330 328 326 322 318 315 311 308 306 304 301 301 302 304 304 301 298 296 296 297 298 301 304 307 307 306 306 306 306 306 305 305 305 307 309 310 308 304 302 302 303 303 302 300 299 298 298 299 298 297
314 315 316 318 319 319 319 319 320 320 321 322 324 326 328 329 329 329 328 327 326 325 324 323 323 321 319 321 323 325 326 327 329 330 331 332 331 328 326 323 320 316 312 309 307 306 305 305 306 305 302 298 296 297 299 300 299 299 301 304 305 303 303 304 305 307 306 305 305 307 309 309 306 302 302 303 303 302 301 300 299 299 299 298 298 298
312 314 317 319 320 320 321 321 322 322 323 325 327 329 330 332 333 332 331 329 328 327 326 325 324 322 321 322 324 325 325 324 326 328 329 330 331 330 327 324 321 318 315 313 311 310 309 310 309 307 303 298 295 296 299 301 301 301 301 302 302 301 301 303 306 308 307 306 306 307 307 306 304 303 303 303 302 301 301 300 300 299 299 299 298 298
314 315 317 319 320 320 320 321 321 323 324 326 328 329 330 331 332 331 329 328 327 326 325 324 323 321 320 321 324 325 325 324 325 326 327 328 329 329 327 325 323 321 318 317 316 315 314 314 312 309 305 301 298 297 300 302 303 302 302 300 299 299 300 303 306 307 306 305 306 306 305 304 304 304 303 302 301 300 301 300 300 299 299 299 299 298
314 314 316 317 318 318 318 318 320 321 323 325 327 327 328 328 328 328 327 326 324 324 324 323 321 320 318 319 322 323 323 323 323 324 325 326 326 326 325 324 323 322 320 319 319 318 316 314 313 311 309 305 301 299 298 300 302 301 299 298 297 298 299 301 303 305 305 304 305 305 304 304 304 304 302 300 300 300 301 300 300 300 300 300 299 299
312 313 313 314 315 315 315 316 318 319 321 323 324 324 325 325 324 324 324 323 322 322 322 322 321 319 317 318 320 322 321 321 321 321 323 324 324 323 322 322 322 320 318 317 316 315 313 311 310 309 309 309 307 302 298 297 298 298 295 295 296 297 298 299 301 302 303 304 304 304 304 304 303 303 302 300 299 299 299 299 299 299 300 300 299 299
Height
1491 1491 1491 1491 1491 1491 1491 1491 1491 1491 1490 1490 1489 1488 1487 1486 1485 1484 1483 1482 1482 1481 1480 1479 1479 1478 1477 1476 1476 1475 1474 1473 1471 1471 1470 1469 1468 1467 1466 1466 1465 1465 1464 1463 1463 1463 1462 1462 1461 1461 1461 1460 1460 1460 1459 1459 1459 1458 1458 1457 1457 1457 1457 1456 1456 1456 1456 1456 1456 1455 1455 1455 1455 1454 1454 1453 1453 1453 1452 1452 1451 1451 1451 1450 1450 1450
1489 1490 1490 1489 1490 1490 1490 1490 1490 1489 1488 1488 1487 1486 1485 1484 1483 1482 1481 1481 1480 1479 1478 1477 1477 1476 1475 1475 1474 1473 1472 1471 1470 1469 1468 1467 1466 1466 1465 1464 1464 1463 1462 1462 1461 1461 1460 1460 1460 1459 1459 1458 1458 1457 1457 1457 1456 1456 1456 1455 1455 1455 1454 1454 1453 1453 1453 1453 1452 1452 1452 1451 1451 1451 1451 1450 1450 1450 1449 1449 1449 1448 1448 1448 1447 1447
1487 1487 1487 1487 1488 1488 1489 1489 1488 1488 1487 1486 1485 1484 1483 1482 1481 1480 1479 1478 1478 1477 1476 1476 1475 1474 1473 1473 1472 1471 1470 1469 1468 1467 1466 1465 1465 1464 1463 1462 1462 1461 1461 1460 1459 1459 1458 1458 1457 1457 1456 1456 1456 1455 1455 1454 1454 1454 1453 1453 1452 1452 1452 1451 1451 1450 1450 1450 1450 1449 1449 1449 1448 1448 1447 1447 1447 1447 1446 1446 1446 1446 1445 1445 1445 1445
1486 1486 1486 1486 1487 1487 1487 1487 1486 1486 1485 1484 1483 1482 1481 1480 1479 1478 1477 1476 1476 1475 1475 1474 1473 1473 1472 1471 1470 1469 1468 1467 1466 1465 1464 1464 1463 1462 1461 1461 1460 1459 1459 1458 1457 1457 1456 1456 1456 1455 1455 1454 1453 1453 1453 1452 1452 1451 1451 1450 1450 1450 1449 1449 1448 1448 1447 1447 1446 1446 1446 1446 1445 1445 1445 1444 1444 1444 1444 1443 1443 1443 1442 1442 1442 1441
1486 1486 1486 1486 1486 1486 1486 1485 1485 1484 1483 1482 1481 1480 1479 1478 1477 1476 1475 1475 1474 1474 1473 1472 1472 1471 1470 1469 1468 1467 1466 1466 1464 1463 1463 1462 1461 1460 1460 1459 1458 1458 1457 1456 1456 1455 1455 1454 1453 1453 1452 1452 1451 1451 1450 1450 1449 1449 1448 1448 1447 1447 1446 1446 1446 1445 1445 1444 1444 1443 1443 1442 1442 1442 1441 1441 1441 1441 1441 1440 1440 1440 1439 1439 1439 1439
1485 1485 1484 1485 1485 1484 1484 1484 1483 1482 1481 1480 1479 1478 1477 1476 1475 1475 1474 1473 1472 1472 1471 1471 1470 1470 1469 1467 1466 1465 1464 1463 1462 1461 1461 1460 1459 1459 1458 1457 1456 1456 1456 1455 1454 1454 1453 1452 1452 1451 1451 1450 1449 1449 1448 1447 1447 1446 1446 1445 1445 1444 1444 1443 1442 1442 1441 1441 1441 1440 1440 1440 1439 1439 1439 1438 1438 1438 1437 1437 1437 1437 1436 1436 1436 1436
1484 1483 1483 1483 1483 1483 1483 1482 1481 1481 1480 1478 1477 1476 1475 1475 1474 1473 1472 1472 1471 1470 1469 1469 1468 1468 1467 1466 1464 1463 1462 1461 1460 1460 1459 1458 1458 1457 1456 1456 1455 1455 1454 1453 1453 1452 1451 1451 1450 1449 1449 1448 1447 1447 1446 1446 1445 1444 1443 1443 1442 1441 1441 1441 1440 1440 1439 1439 1438 1438 1437 1437 1437 1436 1436 1436 1435 1435 1435 1434 1434 1434 1434 1434 1434 1434
1482 1482 1481 1481 1481 1481 1481 1481 1480 1479 1478 1477 1476 1475 1474 1473 1473 1472 1471 1471 1470 1469 1467 1466 1466 1466 1465 1464 1462 1461 1460 1459 1458 1458 1457 1456 1456 1455 1455 1454 1453 1453 1452 1452 1451 1451 1450 1449 1448 1448 1447 1446 1446 1445 1444 1443 1443 1442 1441 1441 1440 1439 1439 1438 1438 1437 1437 1436 1436 1436 1435 1435 1434 1434 1434 1433 1433 1432 1432 1432 1431 1431 1431 1431 1431 1431
1481 1481 1481 1480 1480 1480 1480 1479 1479 1478 1477 1476 1474 1473 1472 1472 1471 1471 1470 1469 1468 1467 1466 1465 1464 1463 1463 1462 1461 1460 1458 1457 1457 1456 1456 1455 1454 1454 1453 1452 1451 1451 1451 1450 1449 1449 1448 1447 1446 1446 1445 1444 1444 1443 1442 1441 1441 1440 1439 1439 1438 1438 1437 1436 1436 1435 1435 1434 1434 1433 1433 1433 1432 1431 1431 1431 1430 1430 1429 1429 1429 1429 1429 1428 1428 1428
1480 1479 1479 1479 1479 1478 1478 1477 1476 1476 1475 1474 1473 1472 1471 1471 1470 1469 1468 1467 1466 1466 1465 1463 1462 1461 1460 1460 1459 1458 1457 1456 1455 1454 1454 1453 1452 1452 1451 1450 1450 1449 1449 1448 1447 1447 1446 1445 1445 1444 1443 1443 1442 1441 1441 1440 1439 1438 1438 1437 1436 1436 1435 1435 1434 1433 1433 1432 1432 1431 1431 1430 1430 1429 1429 1428 1428 1427 1427 1426 1426 1426 1426 1426 1426 1426
1478 1478 1478 1477 1477 1476 1476 1475 1474 1474 1473 1472 1471 1471 1470 1470 1469 1468 1467 1466 1465 1464 1463 1462 1461 1460 1459 1458 1457 1456 1456 1454 1453 1453 1452 1451 1451 1450 1449 1449 1448 1447 1447 1446 1446 1445 1444 1443 1443 1442 1441 1441 1440 1440 1439 1438 1437 1436 1436 1435 1435 1434 1433 1432 1432 1431 1431 1430 1429 1429 1428 1428 1427 1426 1426 1426 1426 1425 1425 1424 1424 1424 1423 1423 1423 1423
1477 1476 1476 1476 1476 1475 1474 1474 1473 1472 1471 1471 1471 1470 1469 1469 1469 1468 1466 1465 1464 1463 1461 1460 1459 1459 1458 1457 1456 1455 1454 1453 1452 1452 1451 1451 1450 1449 1448 1447 1447 1446 1445 1445 1444 1443 1442 1442 1441 1440 1440 1439 1439 1438 1437 1436 1436 1435 1434 1433 1433 1432 1431 1430 1430 1429 1428 1428 1427 1426 1426 1425 1425 1424 1424 1423 1423 1422 1422 1421 1421 1421 1421 1420 1420 1420
1475 1475 1475 1474 1474 1473 1473 1472 1472 1471 1471 1471 1471 1470 1469 1468 1468 1467 1465 1464 1462 1461 1461 1459 1458 1457 1457 1456 1455 1454 1453 1453 1452 1451 1451 1450 1449 1449 1448 1447 1446 1445 1444 1443 1442 1441 1441 1440 1439 1439 1438 1437 1437 1436 1435 1435 1434 1433 1432 1431 1430 1429 1429 1428 1427 1426 1426 1425 1424 1424 1423 1422 1422 1421 1421 1421 1420 1420 1419 1419 1418 1418 1418 1418 1417 1417
1474 1474 1473 1473 1472 1472 1472 1472 1472 1471 1471 1471 1470 1469 1468 1467 1466 1465 1464 1463 1461 1461 1460 1459 1457 1456 1456 1455 1455 1454 1453 1452 1452 1451 1450 1449 1449 1448 1447 1446 1444 1443 1442 1441 1440 1440 1439 1438 1437 1436 1436 1436 1435 1434 1433 1432 1431 1431 1430 1429 1428 1427 1426 1425 1424 1424 1423 1422 1421 1421 1421 1420 1419 1419 1418 1418 1417 1417 1416 1416 1416 1416 1415 1415 1415 1415
1473 1472 1472 1472 1472 1472 1472 1471 1471 1470 1469 1469 1468 1467 1466 1466 1465 1464 1463 1462 1461 1460 1459 1457 1456 1455 1455 1454 1454 1453 1453 1452 1451 1450 1449 1448 1448 1447 1446 1444 1442 1441 1441 1440 1438 1438 1437 1436 1436 1435 1434 1433 1433 1432 1431 1430 1429 1428 1427 1426 1425 1424 1423 1422 1422 1421 1420 1420 1419 1418 1418 1417 1417 1416 1416 1416 1415 1414 1414 1414 1413 1413 1413 1412 1412 1412
1471 1471 1471 1471 1471 1471 1471 1470 1470 1469 1468 1467 1467 1466 1466 1465 1464 1463 1463 1461 1460 1459 1458 1456 1455 1454 1454 1454 1453 1453 1452 1451 1451 1449 1448 1447 1446 1445 1444 1442 1441 1440 1439 1438 1437 1436 1435 1435 1434 1433 1432 1431 1431 1430 1429 1428 1426 1426 1425 1424 1423 1422 1421 1420 1419 1418 1418 1417 1416 1416 1416 1415 1414 1414 1413 1413 1412 1412 1411 1411 1411 1410 1410 1410 1409 1409
1470 1470 1470 1470 1469 1469 1469 1469 1468 1467 1467 1466 1466 1466 1465 1464 1463 1462 1461 1460 1459 1458 1457 1456 1455 1454 1452 1452 1452 1452 1452 1451 1449 1448 1447 1445 1444 1444 1443 1441 1439 1438 1437 1436 1436 1434 1433 1432 1432 1431 1430 1429 1428 1427 1426 1425 1424 1423 1422 1421 1420 1419 1418 1418 1417 1416 1415 1415 1414 1413 1413 1412 1412 1411 1411 1410 1410 1409 1408 1408 1408 1407 1407 1406 1406 1406
1469 1469 1469 1468 1468 1467 1467 1467 1467 1467 1466 1466 1465 1464 1464 1463 1462 1461 1460 1459 1458 1457 1456 1456 1455 1454 1452 1451 1451 1451 1451 1450 1448 1446 1445 1443 1442 1442 1441 1440 1438 1436 1436 1435 1434 1433 1432 1431 1430 1429 1428 1427 1426 1425 1424 1423 1421 1421 1420 1419 1418 1417 1416 1415 1415 1414 1413 1412 1411 1411 1410 1410 1409 1408 1408 1407 1407 1406 1406 1405 1405 1404 1404 1404 1403 1403
1467 1467 1467 1467 1466 1466 1466 1466 1466 1466 1465 1464 1464 1463 1462 1461 1460 1459 1458 1458 1457 1456 1456 1455 1454 1453 1452 1451 1450 1450 1450 1448 1446 1445 1443 1441 1440 1440 1439 1438 1436 1435 1434 1433 1432 1431 1430 1429 1428 1426 1426 1424 1423 1422 1421 1420 1419 1418 1417 1417 1416 1415 1414 1413 1412 1411 1411 1410 1409 1408 1407 1407 1406 1406 1405 1405 1404 1403 1403 1402 1402 1401 1401 1401 1400 1400
1466 1466 1466 1466 1466 1465 1465 1465 1464 1464 1463 1463 1462 1461 1460 1459 1459 1458 1457 1457 1456 1455 1455 1454 1453 1451 1451 1450 1449 1448 1448 1446 1445 1443 1441 1440 1439 1438 1438 1436 1435 1434 1433 1432 1431 1430 1429 1427 1426 1424 1423 1422 1421 1420 1419 1418 1417 1416 1416 1415 1414 1413 1412 1411 1410 1409 1408 1407 1406 1406 1405 1404 1404 1403 1402 1402 1401 1401 1400 1400 1399 1399 1398 1398 1397 1397
1465 1465 1465 1465 1465 1464 1463 1462 1462 1462 1461 1461 1460 1460 1459 1458 1457 1457 1456 1455 1455 1454 1453 1452 1451 1450 1450 1448 1447 1446 1446 1445 1443 1441 1440 1438 1437 1436 1436 1435 1434 1433 1431 1430 1429 1428 1427 1426 1424 1423 1421 1421 1420 1419 1418 1417 1416 1415 1414 1413 1412 1411 1410 1409 1408 1407 1406 1405 1404 1403 1402 1402 1401 1400 1400 1399 1398 1398 1397 1397 1396 1396 1395 1395 1394 1394
1464 1463 1463 1463 1462 1462 1461 1461 1460 1460 1460 1459 1459 1458 1457 1457 1456 1455 1455 1454 1453 1452 1452 1451 1450 1449 1448 1446 1445 1444 1444 1443 1442 1441 1439 1437 1435 1435 1435 1434 1433 1431 1430 1429 1428 1427 1426 1424 1423 1421 1420 1419 1418 1417 1416 1415 1414 1413 1412 1411 1410 1409 1408 1407 1406 1405 1404 1403 1402 1401 1400 1399 1398 1398 1397 1396 1396 1395 1395 1394 1393 1393 1392 1391 1391 1391
1461 1461 1461 1461 1460 1460 1459 1459 1458 1458 1458 1457 1457 1457 1456 1456 1455 1454 1453 1453 1452 1451 1450 1449 1447 1446 1446 1445 1444 1443 1442 1442 1441 1440 1438 1436 1435 1433 1434 1433 1432 1431 1429 1428 1426 1426 1424 1423 1421 1420 1418 1417 1416 1415 1414 1413 1412 1411 1410 1409 1408 1407 1406 1405 1404 1402 1401 1400 1399 1398 1397 1396 1396 1395 1394 1393 1393 1392 1391 1391 1390 1389 1389 1388 1387 1387
1460 1459 1459 1459 1458 1458 1457 1457 1457 1456 1456 1456 1456 1456 1455 1455 1454 1453 1452 1451 1450 1449 1448 1447 1446 1445 1444 1443 1442 1441 1441 1441 1440 1439 1438 1436 1434 1433 1432 1432 1431 1429 1428 1426 1426 1424 1422 1421 1419 1418 1416 1415 1414 1413 1412 1411 1410 1409 1408 1407 1406 1405 1404 1403 1401 1401 1399 1398 1397 1396 1395 1394 1393 1392 1391 1391 1390 1389 1388 1387 1387 1386 1386 1385 1384 1384
1458 1457 1457 1457 1456 1456 1456 1456 1456 1455 1455 1455 1455 1455 1454 1453 1452 1451 1450 1449 1448 1448 1447 1446 1444 1443 1442 1441 1441 1440 1440 1439 1439 1438 1436 1435 1433 1432 1431 1431 1430 1428 1426 1425 1424 1422 1420 1418 1417 1416 1415 1413 1412 1411 1410 1409 1408 1406 1406 1405 1403 1402 1401 1401 1399 1398 1397 1396 1395 1394 1392 1391 1391 1390 1389 1388 1387 1386 1385 1385 1384 1383 1383 1382 1381 1381
1456 1456 1455 1455 1455 1454 1454 1454 1454 1453 1453 1453 1452 1452 1451 1451 1450 1449 1449 1448 1447 1447 1446 1445 1443 1442 1441 1440 1439 1439 1438 1438 1437 1436 1436 1434 1432 1431 1430 1430 1429 1427 1425 1423 1421 1421 1419 1417 1415 1414 1413 1411 1410 1409 1408 1406 1405 1404 1403 1402 1401 1400 1399 1398 1397 1396 1395 1394 1392 1391 1390 1389 1388 1387 1386 1385 1384 1383 1383 1382 1381 1381 1380 1379 1379 1378
1454 1454 1453 1453 1453 1452 1452 1452 1451 1451 1451 1451 1451 1450 1450 1449 1448 1447 1447 1446 1446 1446 1445 1443 1442 1441 1440 1439 1438 1437 1437 1436 1436 1435 1434 1433 1431 1430 1429 1428 1427 1426 1423 1421 1420 1419 1417 1415 1413 1412 1411 1409 1408 1406 1405 1404 1403 1402 1401 1400 1399 1398 1397 1396 1395 1393 1392 1391 1390 1389 1387 1386 1385 1384 1383 1382 1381 1381 1380 1379 1379 1378 1377 1377 1376 1375
1452 1452 1452 1451 1451 1451 1450 1450 1450 1450 1449 1449 1449 1449 1448 1447 1446 1446 1445 1445 1444 1444 1443 1442 1441 1440 1438 1437 1436 1436 1435 1435 1434 1434 1433 1432 1430 1428 1427 1427 1426 1424 1422 1420 1417 1416 1415 1413 1411 1410 1409 1407 1406 1405 1404 1403 1402 1401 1399 1398 1397 1396 1394 1393 1392 1391 1390 1388 1387 1386 1385 1384 1383 1382 1381 1380 1379 1378 1377 1377 1376 1376 1375 1374 1373 1372
1451 1451 1450 1450 1450 1449 1449 1449 1448 1448 1448 1448 1447 1447 1446 1446 1445 1444 1443 1443 1443 1442 1441 1440 1439 1438 1437 1436 1435 1434 1433 1433 1433 1433 1432 1431 1429 1427 1426 1426 1424 1423 1421 1418 1416 1413 1412 1411 1410 1409 1407 1406 1405 1404 1402 1401 1400 1398 1397 1396 1394 1393 1392 1391 1390 1388 1387 1386 1385 1384 1382 1381 1381 1380 1379 1378 1377 1376 1375 1374 1374 1373 1372 1371 1370 1369
1450 1450 1449 1449 1449 1448 1448 1447 1447 1447 1446 1446 1446 1445 1445 1444 1443 1443 1442 1442 1441 1440 1439 1439 1438 1437 1436 1435 1434 1432 1432 1432 1432 1432 1431 1430 1428 1426 1425 1424 1423 1421 1420 1418 1415 1411 1409 1408 1408 1408 1406 1405 1404 1402 1401 1399 1398 1396 1395 1393 1392 1391 1390 1388 1387 1386 1385 1384 1382 1381 1380 1379 1378 1377 1376 1376 1375 1374 1373 1372 1371 1371 1370 1369 1367 1366
1449 1448 1448 1447 1447 1447 1446 1446 1446 1446 1445 1445 1444 1444 1443 1442 1442 1441 1441 1440 1439 1439 1438 1437 1436 1436 1435 1435 1433 1432 1431 1431 1432 1431 1430 1428 1426 1425 1424 1422 1421 1420 1419 1418 1416 1412 1408 1406 1405 1406 1405 1403 1402 1400 1399 1397 1396 1394 1393 1391 1390 1388 1387 1386 1385 1384 1382 1381 1380 1379 1378 1377 1376 1375 1374 1373 1372 1371 1371 1370 1369 1369 1367 1366 1365 1364
1447 1447 1447 1446 1446 1446 1445 1445 1444 1444 1443 1443 1442 1442 1441 1441 1440 1440 1439 1438 1438 1437 1436 1436 1435 1434 1434 1433 1432 1431 1430 1430 1430 1430 1429 1427 1425 1423 1422 1421 1420 1418 1418 1417 1416 1414 1410 1406 1403 1402 1402 1401 1400 1398 1396 1396 1394 1393 1391 1389 1388 1386 1385 1384 1383 1382 1380 1379 1378 1377 1376 1375 1374 1373 1372 1371 1370 1369 1368 1368 1367 1366 1365 1364 1363 1361
1446 1446 1446 1445 1445 1444 1444 1443 1443 1442 1442 1441 1441 1441 1440 1439 1439 1438 1438 1437 1436 1436 1435 1434 1434 1433 1432 1431 1430 1429 1428 1428 1428 1428 1427 1426 1424 1422 1421 1420 1418 1417 1416 1415 1414 1413 1411 1406 1403 1400 1399 1398 1397 1396 1395 1394 1392 1391 1390 1388 1386 1384 1383 1382 1381 1380 1378 1377 1376 1375 1373 1372 1371 1370 1369 1368 1367 1367 1366 1365 1365 1364 1363 1362 1361 1359
1446 1445 1445 1444 1444 1443 1443 1442 1441 1441 1441 1440 1440 1439 1438 1438 1437 1437 1436 1436 1435 1434 1433 1433 1432 1431 1431 1430 1429 1427 1426 1426 1427 1426 1426 1424 1422 1421 1419 1418 1417 1415 1414 1413 1412 1411 1409 1406 1404 1401 1398 1396 1395 1394 1393 1392 1391 1389 1388 1386 1385 1383 1381 1380 1379 1378 1376 1375 1374 1372 1371 1370 1369 1368 1367 1366 1365 1364 1363 1363 1362 1361 1361 1360 1359 1358
1445 1444 1444 1443 1443 1442 1441 1441 1440 1440 1439 1439 1438 1437 1436 1436 1436 1435 1434 1434 1433 1432 1432 1431 1431 1430 1430 1429 1427 1426 1425 1426 1426 1425 1424 1423 1421 1419 1418 1416 1415 1414 1413 1412 1411 1409 1407 1405 1403 1401 1399 1395 1393 1392 1391 1391 1389 1388 1386 1385 1383 1382 1380 1379 1377 1376 1374 1373 1371 1370 1369 1368 1366 1365 1364 1363 1363 1362 1361 1361 1360 1359 1359 1358 1357 1356
1444 1443 1443 1442 1441 1441 1440 1440 1439 1438 1438 1437 1436 1436 1435 1435 1434 1433 1433 1432 1431 1431 1431 1430 1429 1429 1428 1427 1426 1425 1424 1424 1424 1423 1422 1421 1420 1418 1416 1415 1413 1413 1412 1410 1409 1408 1406 1404 1402 1400 1399 1396 1392 1390 1389 1389 1388 1386 1385 1383 1382 1380 1379 1377 1376 1374 1372 1371 1369 1368 1367 1366 1364 1363 1362 1361 1361 1360 1359 1358 1357 1357 1356 1356 1355 1354
1443 1442 1442 1441 1441 1440 1439 1438 1438 1437 1436 1436 1435 1434 1434 1433 1432 1432 1431 1431 1430 1430 1429 1428 1428 1427 1426 1426 1425 1424 1423 1423 1422 1421 1421 1420 1418 1417 1415 1413 1412 1411 1410 1409 1407 1406 1405 1403 1400 1398 1397 1395 1392 1389 1387 1386 1385 1384 1383 1381 1380 1378 1376 1375 1374 1372 1371 1369 1367 1366 1365 1364 1363 1361 1360 1359 1358 1357 1356 1356 1355 1354 1354 1353 1352 1351
1442 1441 1441 1440 1439 1439 1438 1437 1436 1436 1435 1434 1434 1433 1432 1432 1431 1431 1430 1429 1429 1428 1427 1427 1426 1426 1425 1424 1424 1423 1422 1421 1421 1420 1419 1418 1416 1415 1413 1411 1410 1409 1409 1407 1406 1405 1403 1402 1399 1397 1395 1393 1391 1389 1387 1385 1383 1381 1380 1379 1377 1376 1374 1373 1371 1370 1369 1367 1366 1365 1363 1362 1361 1360 1358 1357 1356 1355 1354 1353 1352 1351 1351 1350 1349 1348
1441 1440 1440 1439 1438 1438 1437 1436 1436 1435 1434 1433 1432 1432 1431 1431 1430 1429 1429 1428 1427 1427 1426 1426 1425 1424 1423 1423 1422 1421 1420 1419 1419 1418 1417 1416 1415 1413 1412 1410 1408 1407 1406 1406 1405 1403 1402 1400 1398 1396 1394 1391 1388 1386 1385 1384 1382 1380 1378 1376 1374 1373 1372 1371 1370 1369 1367 1366 1364 1362 1361 1360 1359 1358 1356 1355 1354 1353 1352 1351 1350 1349 1348 1347 1346 1345
1440 1439 1439 1438 1437 1437 1436 1435 1434 1434 1433 1432 1431 1431 1430 1429 1429 1428 1427 1427 1426 1426 1425 1424 1424 1423 1422 1421 1420 1419 1418 1417 1416 1416 1415 1414 1413 1411 1410 1409 1407 1406 1405 1404 1403 1401 1400 1398 1396 1394 1392 1390 1387 1385 1383 1381 1380 1379 1377 1375 1372 1370 1370 1369 1368 1367 1365 1364 1362 1361 1359 1358 1357 1356 1355 1353 1352 1351 1350 1349 1348 1347 1346 1346 1344 1343
1439 1438 1438 1437 1436 1436 1435 1434 1433 1433 1432 1431 1431 1430 1429 1428 1428 1427 1426 1426 1425 1425 1424 1423 1422 1421 1420 1419 1418 1417 1416 1416 1415 1414 1413 1411 1411 1409 1408 1407 1406 1404 1403 1402 1401 1399 1398 1396 1394 1392 1390 1388 1386 1384 1381 1380 1378 1377 1376 1374 1371 1369 1367 1366 1366 1364 1363 1361 1360 1359 1358 1356 1355 1354 1353 1351 1351 1349 1348 1347 1346 1345 1344 1343 1342 1341
1438 1438 1437 1436 1436 1435 1434 1433 1433 1432 1431 1431 1430 1429 1428 1427 1427 1426 1425 1425 1424 1423 1423 1422 1421 1420 1418 1417 1417 1416 1415 1414 1413 1412 1411 1409 1408 1407 1406 1405 1404 1402 1401 1400 1398 1397 1396 1394 1392 1390 1388 1387 1385 1383 1380 1378 1376 1376 1375 1373 1370 1367 1365 1363 1363 1363 1361 1360 1359 1357 1356 1355 1353 1352 1351 1349 1348 1347 1346 1345 1344 1342 1341 1341 1340 1339
1437 1437 1436 1436 1435 1434 1433 1432 1432 1431 1430 1430 1429 1428 1427 1427 1426 1425 1424 1424 1423 1422 1421 1421 1419 1418 1417 1416 1415 1414 1413 1412 1411 1410 1409 1408 1407 1406 1404 1403 1402 1401 1400 1398 1396 1395 1393 1392 1391 1388 1386 1385 1384 1381 1379 1376 1374 1373 1372 1371 1370 1367 1364 1361 1360 1360 1360 1358 1356 1355 1354 1352 1351 1349 1348 1347 1345 1344 1343 1342 1341 1340 1339 1338 1337 1336
1436 1436 1435 1435 1434 1433 1432 1431 1431 1430 1429 1429 1428 1427 1427 1426 1425 1424 1423 1423 1422 1421 1420 1419 1418 1417 1416 1414 1413 1412 1411 1411 1410 1409 1408 1407 1406 1404 1403 1401 1400 1399 1398 1396 1395 1393 1391 1390 1388 1386 1385 1384 1382 1380 1377 1375 1373 1371 1370 1369 1368 1366 1364 1361 1358 1357 1356 1355 1354 1353 1351 1350 1349 1347 1346 1344 1343 1341 1340 1339 1338 1337 1336 1335 1334 1333
1436 1435 1435 1434 1433 1432 1431 1431 1430 1429 1429 1428 1427 1426 1426 1425 1424 1423 1422 1421 1421 1420 1419 1418 1417 1415 1414 1413 1412 1411 1410 1409 1408 1407 1406 1405 1404 1403 1401 1400 1399 1397 1396 1395 1393 1392 1390 1388 1386 1384 1383 1382 1380 1378 1375 1373 1371 1369 1367 1366 1365 1364 1361 1359 1357 1356 1354 1353 1351 1351 1350 1349 1347 1346 1343 1342 1340 1339 1338 1336 1335 1334 1333 1332 1331 1330
1435 1434 1434 1433 1432 1431 1431 1430 1429 1429 1428 1427 1426 1426 1425 1424 1423 1422 1421 1421 1420 1419 1417 1416 1416 1414 1412 1411 1410 1409 1408 1406 1405 1405 1404 1403 1402 1401 1400 1399 1397 1396 1395 1393 1391 1390 1388 1386 1384 1382 1381 1379 1377 1375 1373 1371 1370 1367 1365 1364 1363 1361 1359 1357 1356 1355 1353 1351 1350 1348 1347 1347 1346 1344 1341 1339 1338 1336 1335 1334 1333 1331 1330 1329 1328 1327
1434 1434 1433 1432 1431 1431 1430 1429 1429 1428 1427 1426 1425 1425 1424 1423 1422 1421 1420 1419 1418 1417 1416 1415 1414 1413 1411 1410 1409 1407 1406 1404 1403 1402 1402 1401 1400 1399 1398 1397 1396 1395 1393 1391 1390 1388 1386 1384 1383 1381 1380 1377 1375 1372 1370 1369 1368 1366 1364 1362 1361 1359 1357 1355 1354 1353 1351 1350 1348 1346 1346 1345 1343 1342 1340 1337 1335 1334 1332 1331 1330 1329 1328 1327 1326 1324
1433 1433 1432 1431 1431 1430 1429 1428 1428 1427 1426 1425 1424 1423 1423 1422 1421 1420 1419 1418 1417 1416 1415 1414 1413 1411 1410 1409 1408 1406 1405 1403 1402 1401 1400 1399 1398 1397 1396 1395 1394 1392 1391 1390 1388 1386 1384 1382 1381 1379 1378 1376 1373 1370 1368 1367 1366 1365 1363 1361 1359 1358 1356 1353 1352 1351 1349 1348 1346 1345 1344 1343 1341 1339 1337 1335 1333 1331 1329 1328 1328 1327 1326 1325 1323 1322
1432 1432 1431 1431 1430 1429 1428 1428 1427 1426 1425 1424 1423 1422 1422 1421 1420 1419 1418 1417 1416 1415 1414 1412 1411 1410 1409 1407 1406 1405 1404 1402 1401 1400 1398 1397 1396 1395 1394 1393 1392 1390 1389 1387 1385 1384 1382 1380 1378 1377 1376 1375 1372 1369 1366 1365 1364 1363 1361 1360 1358 1356 1354 1351 1350 1349 1348 1346 1345 1343 1342 1341 1340 1338 1336 1334 1331 1328 1326 1326 1325 1324 1323 1322 1321 1320
1432 1431 1430 1430 1429 1428 1427 1427 1426 1425 1424 1423 1422 1421 1421 1420 1419 1418 1417 1416 1415 1414 1412 1411 1410 1409 1407 1406 1405 1404 1402 1401 1400 1398 1397 1396 1395 1394 1392 1391 1390 1388 1386 1384 1383 1381 1379 1377 1376 1375 1374 1373 1372 1369 1366 1364 1362 1361 1360 1358 1357 1355 1353 1351 1349 1347 1346 1345 1343 1342 1341 1339 1338 1336 1335 1333 1330 1327 1324 1323 1322 1321 1321 1320 1319 1318
1431 1430 1430 1429 1428 1427 1427 1426 1425 1424 1423 1422 1421 1421 1420 1419 1418 1417 1416 1415 1414 1412 1411 1410 1409 1407 1406 1405 1403 1402 1401 1400 1398 1396 1395 1394 1393 1392 1391 1389 1388 1386 1385 1382 1381 1379 1378 1376 1374 1372 1371 1371 1371 1370 1367 1364 1362 1360 1358 1356 1355 1354 1352 1350 1348 1346 1345 1343 1341 1340 1338 1337 1336 1334 1333 1331 1329 1326 1323 1321 1319 1319 1318 1318 1317 1316